VJC618 VVTS-VVCR

Flight info

Callsign VJC618
Flight time 0h 37m
Altitude 23000
Route BIXEX5A BIXEX W15 BANKE BANKE1A
Aircraft A21N/M-SDE2E3FGHIRWXY/LB1

Departure

Time 2026-05-07 17:13
Airport Tan Son Nhat International Airport (VVTS)

Arrival

Time 2026-05-07 17:50
Airport Cam Ranh International Airport / Cam Ranh Air Base (VVCR)
Time Latitude Longitude Altitude Speed Heading
2026-05-07 17:11 10.82093 106.66687 39 ft 20 kts 69°
2026-05-07 17:11 10.82144 106.66821 37 ft 21 kts 69°
2026-05-07 17:11 10.82196 106.66961 40 ft 20 kts 69°
2026-05-07 17:12 10.82278 106.67001 40 ft 16 kts 332°
2026-05-07 17:12 10.82331 106.66952 40 ft 10 kts 285°
2026-05-07 17:12 10.82352 106.66896 40 ft 10 kts 244°
2026-05-07 17:12 10.82302 106.66766 38 ft 38 kts 249°
2026-05-07 17:13 10.82116 106.66281 40 ft 110 kts 248°
2026-05-07 17:13 10.81762 106.65348 41 ft 170 kts 248°
2026-05-07 17:13 10.81329 106.64141 388 ft 182 kts 248°
2026-05-07 17:13 10.80867 106.62939 964 ft 185 kts 244°
2026-05-07 17:14 10.80370 106.61692 1425 ft 197 kts 244°
2026-05-07 17:14 10.79849 106.60344 1870 ft 212 kts 244°
2026-05-07 17:14 10.79303 106.58909 2358 ft 223 kts 245°
2026-05-07 17:14 10.78733 106.57402 2857 ft 235 kts 246°
2026-05-07 17:15 10.78363 106.55717 3194 ft 258 kts 268°
2026-05-07 17:15 10.78735 106.53883 3592 ft 275 kts 297°
2026-05-07 17:15 10.79956 106.52379 4223 ft 278 kts 326°
2026-05-07 17:15 10.81682 106.51518 5028 ft 277 kts 341°
2026-05-07 17:16 10.83506 106.50868 5802 ft 278 kts 342°
2026-05-07 17:16 10.85344 106.50214 6529 ft 281 kts 342°
2026-05-07 17:16 10.87170 106.49544 7223 ft 283 kts 341°
2026-05-07 17:16 10.89070 106.48998 7905 ft 284 kts 354°
2026-05-07 17:17 10.91030 106.49104 8560 ft 283 kts 17°
2026-05-07 17:17 10.92803 106.49969 9198 ft 284 kts 39°
2026-05-07 17:17 10.94164 106.51424 9847 ft 285 kts 53°
2026-05-07 17:17 10.95363 106.53067 10326 ft 294 kts 54°
2026-05-07 17:18 10.96615 106.54789 10584 ft 311 kts 54°
2026-05-07 17:18 10.97939 106.56603 10802 ft 327 kts 57°
2026-05-07 17:18 10.98986 106.58718 11012 ft 343 kts 68°
2026-05-07 17:18 10.99880 106.60999 11207 ft 359 kts 69°
2026-05-07 17:19 11.00821 106.63413 11407 ft 374 kts 69°
2026-05-07 17:19 11.01802 106.65919 11588 ft 387 kts 68°
2026-05-07 17:19 11.02824 106.68499 11865 ft 396 kts 68°
2026-05-07 17:19 11.03866 106.71118 12276 ft 400 kts 68°
2026-05-07 17:20 11.04919 106.73751 12699 ft 403 kts 68°
2026-05-07 17:20 11.05969 106.76380 13124 ft 406 kts 69°
2026-05-07 17:20 11.07035 106.79050 13561 ft 409 kts 69°
2026-05-07 17:20 11.08109 106.81746 13961 ft 412 kts 69°
2026-05-07 17:21 11.09189 106.84458 14350 ft 414 kts 69°
2026-05-07 17:21 11.10274 106.87180 14746 ft 416 kts 69°
2026-05-07 17:21 11.11366 106.89923 15153 ft 419 kts 69°
2026-05-07 17:21 11.12457 106.92676 15598 ft 421 kts 69°
2026-05-07 17:22 11.13559 106.95447 16032 ft 423 kts 69°
2026-05-07 17:22 11.14293 106.97295 16303 ft 425 kts 69°
2026-05-07 17:22 11.15406 107.00091 16704 ft 427 kts 69°
2026-05-07 17:22 11.16525 107.02904 17101 ft 429 kts 69°
2026-05-07 17:23 11.18019 107.06664 17602 ft 433 kts 69°
2026-05-07 17:23 11.18772 107.08559 17864 ft 434 kts 69°
2026-05-07 17:23 11.19908 107.11418 18227 ft 437 kts 69°
2026-05-07 17:23 11.21054 107.14294 18544 ft 439 kts 69°
2026-05-07 17:24 11.22202 107.17193 18868 ft 441 kts 69°
2026-05-07 17:24 11.23356 107.20107 19184 ft 443 kts 69°
2026-05-07 17:24 11.24504 107.23005 19487 ft 445 kts 69°
2026-05-07 17:24 11.25670 107.25946 19797 ft 447 kts 69°
2026-05-07 17:25 11.26840 107.28891 20109 ft 450 kts 69°
2026-05-07 17:25 11.28021 107.31868 20426 ft 452 kts 69°
2026-05-07 17:25 11.29187 107.34813 20741 ft 454 kts 69°
2026-05-07 17:25 11.30370 107.37797 21059 ft 456 kts 69°
2026-05-07 17:26 11.31562 107.40811 21399 ft 458 kts 69°
2026-05-07 17:26 11.32758 107.43841 21762 ft 461 kts 69°
2026-05-07 17:26 11.33945 107.46843 22132 ft 463 kts 69°
2026-05-07 17:26 11.35157 107.49904 22476 ft 466 kts 69°
2026-05-07 17:27 11.36374 107.52980 22807 ft 468 kts 69°
2026-05-07 17:27 11.37600 107.56083 22929 ft 474 kts 69°
2026-05-07 17:27 11.38838 107.59216 22940 ft 475 kts 69°
2026-05-07 17:27 11.40056 107.62299 22933 ft 475 kts 69°
2026-05-07 17:28 11.41297 107.65441 22921 ft 475 kts 69°
2026-05-07 17:28 11.42529 107.68557 22916 ft 475 kts 69°
2026-05-07 17:28 11.43764 107.71688 22916 ft 475 kts 69°
2026-05-07 17:28 11.44999 107.74821 22919 ft 475 kts 69°
2026-05-07 17:29 11.46218 107.77905 22925 ft 475 kts 69°
2026-05-07 17:29 11.47453 107.81037 22931 ft 475 kts 69°
2026-05-07 17:29 11.48681 107.84161 22936 ft 475 kts 69°
2026-05-07 17:29 11.49914 107.87291 22937 ft 475 kts 69°
2026-05-07 17:30 11.51149 107.90427 22942 ft 475 kts 69°
2026-05-07 17:30 11.52381 107.93560 22942 ft 475 kts 69°
2026-05-07 17:30 11.53616 107.96698 22943 ft 475 kts 69°
2026-05-07 17:30 11.54830 107.99788 22943 ft 475 kts 69°
2026-05-07 17:31 11.56058 108.02915 22943 ft 475 kts 69°
2026-05-07 17:31 11.57294 108.06062 22942 ft 475 kts 69°
2026-05-07 17:31 11.58524 108.09192 22942 ft 475 kts 69°
2026-05-07 17:31 11.59773 108.12320 22940 ft 475 kts 67°
2026-05-07 17:32 11.61348 108.15290 22957 ft 476 kts 58°
2026-05-07 17:32 11.63239 108.18077 22960 ft 477 kts 56°
2026-05-07 17:32 11.65146 108.20792 22957 ft 477 kts 55°
2026-05-07 17:32 11.67079 108.23544 22958 ft 477 kts 55°
2026-05-07 17:33 11.69008 108.26312 22954 ft 477 kts 55°
2026-05-07 17:33 11.70934 108.29076 22955 ft 477 kts 56°
2026-05-07 17:33 11.72850 108.31839 22972 ft 477 kts 56°
2026-05-07 17:33 11.74658 108.34596 22656 ft 467 kts 61°
2026-05-07 17:34 11.75987 108.37582 22157 ft 456 kts 72°
2026-05-07 17:34 11.76894 108.40659 21742 ft 445 kts 75°
2026-05-07 17:34 11.77719 108.43677 21320 ft 439 kts 75°
2026-05-07 17:34 11.78537 108.46668 20750 ft 434 kts 75°
2026-05-07 17:35 11.79352 108.49634 20150 ft 431 kts 75°
2026-05-07 17:35 11.80151 108.52518 19565 ft 424 kts 75°
2026-05-07 17:35 11.80951 108.55400 18984 ft 418 kts 75°
2026-05-07 17:35 11.81739 108.58232 18376 ft 412 kts 75°
2026-05-07 17:36 11.82519 108.61035 17664 ft 409 kts 75°
2026-05-07 17:36 11.83301 108.63848 17016 ft 412 kts 75°
2026-05-07 17:36 11.84089 108.66656 16441 ft 410 kts 75°
2026-05-07 17:36 11.84882 108.69447 15912 ft 407 kts 75°
2026-05-07 17:37 11.85657 108.72182 15378 ft 404 kts 75°
2026-05-07 17:37 11.86438 108.74942 14853 ft 402 kts 75°
2026-05-07 17:37 11.87208 108.77670 14404 ft 397 kts 75°
2026-05-07 17:37 11.87969 108.80364 13986 ft 393 kts 75°
2026-05-07 17:38 11.88730 108.83058 13519 ft 392 kts 75°
2026-05-07 17:38 11.89479 108.85730 12925 ft 390 kts 76°
2026-05-07 17:38 11.90048 108.88442 12441 ft 399 kts 81°
2026-05-07 17:38 11.90529 108.91241 12191 ft 405 kts 81°
2026-05-07 17:39 11.91015 108.94079 12020 ft 402 kts 81°
2026-05-07 17:39 11.91487 108.96823 11832 ft 384 kts 80°
2026-05-07 17:39 11.91941 108.99451 11625 ft 367 kts 80°
2026-05-07 17:39 11.92378 109.01966 11446 ft 352 kts 80°
2026-05-07 17:40 11.92796 109.04383 11264 ft 338 kts 80°
2026-05-07 17:40 11.93194 109.06693 11091 ft 324 kts 80°
2026-05-07 17:40 11.93577 109.08918 10918 ft 311 kts 80°
2026-05-07 17:40 11.93937 109.11022 10771 ft 298 kts 80°
2026-05-07 17:41 11.94293 109.13090 10414 ft 293 kts 80°
2026-05-07 17:41 11.94644 109.15138 9969 ft 292 kts 80°
2026-05-07 17:41 11.94995 109.17188 9521 ft 292 kts 80°
2026-05-07 17:41 11.95343 109.19220 9089 ft 290 kts 80°
2026-05-07 17:42 11.95601 109.21255 8631 ft 289 kts 90°
2026-05-07 17:42 11.95240 109.23261 8199 ft 287 kts 108°
2026-05-07 17:42 11.94558 109.25157 8017 ft 283 kts 110°
2026-05-07 17:42 11.93859 109.27033 7682 ft 283 kts 110°
2026-05-07 17:43 11.93165 109.28922 7193 ft 284 kts 109°
2026-05-07 17:43 11.92340 109.30724 6765 ft 285 kts 124°
2026-05-07 17:43 11.90877 109.32073 6332 ft 286 kts 152°
2026-05-07 17:43 11.88958 109.32554 5872 ft 288 kts 180°
2026-05-07 17:44 11.87006 109.32135 5440 ft 287 kts 199°
2026-05-07 17:44 11.85146 109.31402 5079 ft 285 kts 201°
2026-05-07 17:44 11.83333 109.30678 4961 ft 271 kts 200°
2026-05-07 17:44 11.81644 109.30004 4938 ft 256 kts 204°
2026-05-07 17:45 11.80217 109.28951 4940 ft 256 kts 232°
2026-05-07 17:45 11.79500 109.27306 4882 ft 255 kts 264°
2026-05-07 17:45 11.79708 109.25544 4516 ft 251 kts 293°
2026-05-07 17:45 11.80474 109.23953 4171 ft 248 kts 300°
2026-05-07 17:46 11.81286 109.22408 3809 ft 247 kts 300°
2026-05-07 17:46 11.82083 109.20864 3456 ft 245 kts 299°
2026-05-07 17:46 11.82849 109.19337 3117 ft 244 kts 299°
2026-05-07 17:46 11.83814 109.17955 2768 ft 237 kts 325°
2026-05-07 17:47 11.85280 109.17349 2520 ft 223 kts 357°
2026-05-07 17:47 11.86756 109.17529 2315 ft 208 kts 18°
2026-05-07 17:47 11.88031 109.18024 2299 ft 183 kts 24°
2026-05-07 17:47 11.89165 109.18499 2139 ft 171 kts 21°
2026-05-07 17:48 11.90250 109.18901 1894 ft 165 kts 19°
2026-05-07 17:48 11.91318 109.19276 1644 ft 160 kts 19°
2026-05-07 17:48 11.92360 109.19639 1392 ft 157 kts 19°
2026-05-07 17:48 11.93395 109.20000 1176 ft 157 kts 19°
2026-05-07 17:49 11.94372 109.20340 976 ft 142 kts 19°
2026-05-07 17:49 11.95312 109.20672 726 ft 142 kts 19°
2026-05-07 17:49 11.96242 109.20994 521 ft 143 kts 15°
2026-05-07 17:49 11.97187 109.21317 289 ft 143 kts 18°
2026-05-07 17:50 11.98112 109.21638 100 ft 141 kts 17°
2026-05-07 17:50 11.99001 109.21948 56 ft 122 kts 19°
2026-05-07 17:50 11.99622 109.22162 57 ft 69 kts 18°
2026-05-07 17:50 11.99864 109.22246 55 ft 16 kts 14°
2026-05-07 17:51 11.99935 109.22171 52 ft 17 kts 285°
2026-05-07 17:51 11.99976 109.22049 59 ft 19 kts 289°
2026-05-07 17:51 12.00020 109.21918 60 ft 20 kts 289°
2026-05-07 17:51 12.00066 109.21780 57 ft 21 kts 289°
2026-05-07 17:52 12.00113 109.21635 54 ft 22 kts 288°
2026-05-07 17:52 12.00148 109.21524 56 ft 15 kts 288°
2026-05-07 17:52 12.00196 109.21474 58 ft 12 kts
2026-05-07 17:52 12.00272 109.21498 58 ft 12 kts 21°
2026-05-07 17:53 12.00353 109.21529 58 ft 13 kts 20°
2026-05-07 17:53 12.00428 109.21556 58 ft 6 kts 19°
2026-05-07 17:53 12.00451 109.21591 58 ft 8 kts 107°
2026-05-07 17:53 12.00443 109.21618 52 ft 1 kts 108°
2026-05-07 17:54 12.00443 109.21619 52 ft 0 kts 108°